TimeCST,TemperatureF,Dew PointF,Humidity,Sea Level PressureIn,VisibilityMPH,Wind Direction,Wind SpeedMPH,Gust SpeedMPH,PrecipitationIn,Events,Conditions,WindDirDegrees,DateUTC
12:15 AM,26.6,21.2,80,30.25,10.0,East,5.8,-,N/A,,Overcast,80,2013-02-08 06:15:00
12:55 AM,26.6,21.2,80,30.26,10.0,Calm,Calm,-,N/A,,Overcast,0,2013-02-08 06:55:00
1:15 AM,26.6,21.2,80,30.26,10.0,ESE,3.5,-,N/A,,Overcast,120,2013-02-08 07:15:00
1:35 AM,26.6,21.2,80,30.26,10.0,East,4.6,-,N/A,,Overcast,100,2013-02-08 07:35:00
1:55 AM,26.6,21.2,80,30.26,10.0,SE,6.9,-,N/A,,Overcast,130,2013-02-08 07:55:00
2:15 AM,26.6,21.2,80,30.26,10.0,ESE,5.8,-,N/A,,Overcast,110,2013-02-08 08:15:00
2:35 AM,26.6,21.2,80,30.26,10.0,East,6.9,-,N/A,,Overcast,100,2013-02-08 08:35:00
2:55 AM,26.6,21.2,80,30.26,10.0,East,4.6,-,N/A,,Overcast,90,2013-02-08 08:55:00
3:35 AM,26.6,19.4,74,30.26,10.0,ESE,4.6,-,N/A,,Overcast,110,2013-02-08 09:35:00
3:55 AM,26.6,21.2,80,30.26,10.0,ESE,5.8,-,N/A,,Overcast,110,2013-02-08 09:55:00
4:15 AM,26.6,21.2,80,30.26,10.0,ESE,6.9,-,N/A,,Overcast,110,2013-02-08 10:15:00
4:35 AM,26.6,21.2,80,30.26,9.0,ESE,6.9,-,N/A,,Overcast,120,2013-02-08 10:35:00
5:15 AM,26.6,21.2,80,30.26,10.0,ESE,8.1,-,N/A,,Overcast,110,2013-02-08 11:15:00
5:35 AM,26.6,21.2,80,30.26,10.0,SE,6.9,-,N/A,,Overcast,130,2013-02-08 11:35:00
5:55 AM,24.8,21.2,86,30.26,10.0,SE,9.2,-,N/A,,Overcast,140,2013-02-08 11:55:00
6:15 AM,24.8,21.2,86,30.26,9.0,SE,9.2,-,N/A,,Overcast,140,2013-02-08 12:15:00
6:35 AM,24.8,21.2,86,30.25,10.0,SE,10.4,-,N/A,,Overcast,130,2013-02-08 12:35:00
6:55 AM,24.8,21.2,86,30.25,10.0,ESE,10.4,-,N/A,,Overcast,120,2013-02-08 12:55:00
7:15 AM,24.8,21.2,86,30.25,10.0,SE,10.4,-,N/A,,Overcast,130,2013-02-08 13:15:00
7:35 AM,24.8,21.2,86,30.26,10.0,SE,12.7,-,N/A,,Overcast,130,2013-02-08 13:35:00
7:55 AM,24.8,21.2,86,30.26,8.0,SE,13.8,17.3,N/A,,Overcast,140,2013-02-08 13:55:00
8:15 AM,24.8,21.2,86,30.26,8.0,SE,10.4,-,N/A,,Overcast,140,2013-02-08 14:15:00
8:35 AM,24.8,23.0,93,30.25,7.0,SE,12.7,17.3,N/A,,Overcast,130,2013-02-08 14:35:00
8:55 AM,24.8,21.2,86,30.25,8.0,SE,12.7,-,N/A,,Overcast,140,2013-02-08 14:55:00
9:15 AM,24.8,21.2,86,30.26,7.0,SSE,15.0,-,N/A,,Overcast,150,2013-02-08 15:15:00
9:35 AM,24.8,21.2,86,30.26,7.0,SE,12.7,17.3,N/A,,Overcast,140,2013-02-08 15:35:00
9:55 AM,26.6,21.2,80,30.26,7.0,SSE,15.0,18.4,N/A,,Overcast,160,2013-02-08 15:55:00
10:15 AM,26.6,21.2,80,30.26,9.0,SSE,10.4,-,N/A,,Overcast,150,2013-02-08 16:15:00
10:35 AM,26.6,23.0,86,30.26,8.0,SE,15.0,18.4,N/A,,Overcast,130,2013-02-08 16:35:00
10:55 AM,26.6,23.0,86,30.26,4.0,SE,16.1,-,N/A,,Overcast,130,2013-02-08 16:55:00
11:15 AM,26.6,23.0,86,30.25,2.5,SE,15.0,-,N/A,,Overcast,140,2013-02-08 17:15:00
11:35 AM,28.4,21.2,74,30.25,2.0,SSE,16.1,-,N/A,,Overcast,150,2013-02-08 17:35:00
11:55 AM,28.4,23.0,80,30.24,2.0,SE,17.3,-,N/A,,Overcast,130,2013-02-08 17:55:00
12:15 PM,28.4,23.0,80,30.23,3.0,SSE,18.4,-,N/A,,Overcast,150,2013-02-08 18:15:00
12:35 PM,28.4,23.0,80,30.22,7.0,SE,17.3,23.0,N/A,,Overcast,130,2013-02-08 18:35:00
12:55 PM,30.2,23.0,75,30.20,9.0,SE,18.4,23.0,N/A,,Overcast,130,2013-02-08 18:55:00
1:15 PM,30.2,24.8,80,30.18,10.0,SE,17.3,25.3,N/A,,Overcast,130,2013-02-08 19:15:00
1:35 PM,30.2,24.8,80,30.16,10.0,SE,18.4,23.0,N/A,,Overcast,140,2013-02-08 19:35:00
1:55 PM,30.2,24.8,80,30.16,10.0,SE,19.6,24.2,N/A,,Mostly Cloudy,140,2013-02-08 19:55:00
2:15 PM,32.0,24.8,75,30.15,10.0,SE,19.6,24.2,N/A,,Mostly Cloudy,140,2013-02-08 20:15:00
2:35 PM,33.8,24.8,70,30.13,10.0,SSE,18.4,23.0,N/A,,Partly Cloudy,150,2013-02-08 20:35:00
2:55 PM,33.8,24.8,70,30.11,10.0,SE,20.7,-,N/A,,Clear,130,2013-02-08 20:55:00
3:15 PM,33.8,24.8,70,30.10,10.0,SE,19.6,25.3,N/A,,Clear,130,2013-02-08 21:15:00
3:35 PM,35.6,24.8,65,30.09,8.0,SE,17.3,20.7,N/A,,Clear,130,2013-02-08 21:35:00
3:55 PM,35.6,26.6,70,30.09,10.0,SE,17.3,21.9,N/A,,Clear,140,2013-02-08 21:55:00
4:15 PM,33.8,24.8,70,30.08,10.0,SSE,20.7,28.8,N/A,,Clear,150,2013-02-08 22:15:00
4:35 PM,33.8,24.8,70,30.07,10.0,SE,16.1,23.0,N/A,,Clear,140,2013-02-08 22:35:00
4:55 PM,33.8,24.8,70,30.07,10.0,SSE,19.6,-,N/A,,Clear,150,2013-02-08 22:55:00
5:35 PM,33.8,24.8,70,30.06,5.0,SE,13.8,-,N/A,,Clear,130,2013-02-08 23:35:00
5:55 PM,32.0,24.8,75,30.06,4.0,SE,17.3,21.9,N/A,,Clear,130,2013-02-08 23:55:00
6:15 PM,32.0,24.8,75,30.06,5.0,SE,15.0,23.0,N/A,,Clear,140,2013-02-09 00:15:00
6:35 PM,30.2,24.8,80,30.05,9.0,SE,19.6,25.3,N/A,,Clear,140,2013-02-09 00:35:00
6:55 PM,30.2,24.8,80,30.04,10.0,SE,18.4,28.8,N/A,,Clear,140,2013-02-09 00:55:00
7:15 PM,30.2,26.6,86,30.05,10.0,SE,19.6,25.3,N/A,,Clear,140,2013-02-09 01:15:00
7:35 PM,30.2,24.8,80,30.05,10.0,SE,18.4,25.3,N/A,,Clear,140,2013-02-09 01:35:00
7:55 PM,30.2,26.6,86,30.05,9.0,SE,18.4,-,N/A,,Clear,140,2013-02-09 01:55:00
8:15 PM,30.2,26.6,86,30.05,7.0,SE,18.4,26.5,N/A,,Clear,140,2013-02-09 02:15:00
8:35 PM,28.4,24.8,86,30.04,7.0,SSE,21.9,-,N/A,,Clear,150,2013-02-09 02:35:00
8:55 PM,28.4,24.8,86,30.04,7.0,SSE,24.2,-,N/A,,Clear,150,2013-02-09 02:55:00
9:15 PM,28.4,26.6,93,30.05,7.0,SSE,19.6,25.3,N/A,,Partly Cloudy,160,2013-02-09 03:15:00
9:35 PM,28.4,26.6,93,30.05,7.0,SSE,17.3,24.2,N/A,,Partly Cloudy,150,2013-02-09 03:35:00
9:55 PM,28.4,24.8,86,30.04,5.0,SSE,21.9,-,N/A,,Clear,150,2013-02-09 03:55:00
10:15 PM,28.4,26.6,93,30.04,5.0,SSE,16.1,-,N/A,,Clear,150,2013-02-09 04:15:00
10:35 PM,28.4,24.8,86,30.03,7.0,SSE,19.6,-,N/A,,Clear,150,2013-02-09 04:35:00
10:55 PM,28.4,24.8,86,30.03,7.0,SE,16.1,21.9,N/A,,Mostly Cloudy,140,2013-02-09 04:55:00
11:15 PM,28.4,24.8,86,30.03,8.0,SE,19.6,23.0,N/A,,Overcast,140,2013-02-09 05:15:00
11:35 PM,28.4,24.8,86,30.02,8.0,SE,16.1,23.0,N/A,,Mostly Cloudy,140,2013-02-09 05:35:00
11:55 PM,28.4,24.8,86,30.01,8.0,SE,19.6,24.2,N/A,,Clear,140,2013-02-09 05:55:00